RH
98 99 99 98 94 92 90 94 93 88 84 80 96 92 84 96 87 77 84 46 56 75 66 65 65 82 79 83 75 76 87 80 69 69 58 49 55 48 38 39 54 55 60 78 98
100 99 99 99 87 94 92 91 91 93 81 81 93 95 88 95 75 83 43 70 72 65 71 70 83 88 88 90 82 84 84 66 50 53 55 52 53 50 50 46 62 69 91 100 96
100 98 98 99 88 91 95 91 94 94 84 84 93 92 94 79 69 52 65 72 61 72 64 73 94 80 87 79 76 69 84 56 49 47 60 61 57 50 58 65 54 62 96 94 88
98 97 100 98 93 86 94 92 95 91 86 84 98 92 90 66 59 45 59 58 58 70 68 69 78 83 89 81 68 81 62 61 58 53 60 61 80 66 69 53 59 62 79 82 90
97 97 99 99 97 85 94 79 95 89 89 88 90 92 80 80 77 42 59 52 52 57 75 69 80 86 88 72 65 71 58 57 60 61 65 72 76 82 73 46 63 78 76 76 80
95 96 95 100 100 88 81 88 95 90 90 97 81 95 81 92 47 48 52 55 55 68 67 82 78 80 82 69 67 75 63 69 64 58 62 76 71 77 72 70 73 70 88 82 81
86 86 90 100 100 92 83 91 97 89 93 97 79 91 89 79 52 55 59 55 61 80 83 78 86 91 79 70 69 62 89 81 70 64 67 72 74 71 76 79 82 62 88 86 75
83 89 92 100 100 93 84 95 84 94 94 89 94 85 89 57 58 59 56 58 72 76 79 84 79 86 78 81 87 93 94 92 74 74 86 68 72 78 77 79 76 76 70 83 80
82 84 96 100 100 93 88 82 94 92 93 95 96 90 91 58 57 54 57 62 74 79 79 84 81 80 78 90 98 90 93 85 92 72 87 84 84 80 79 78 76 79 83 74 90
80 86 94 99 100 95 88 93 91 84 82 93 89 95 70 61 58 55 57 61 69 72 73 81 86 92 91 98 97 90 80 76 80 86 78 96 95 89 79 78 83 77 78 87 82
78 84 92 98 100 93 84 86 85 88 86 84 79 79 63 61 65 60 57 67 71 77 95 86 98 100 90 90 86 81 81 83 89 85 83 86 98 90 74 78 82 82 79 82 91
81 87 93 98 98 88 90 90 79 69 80 77 71 74 70 70 67 54 64 64 69 87 88 94 98 93 91 92 85 84 84 91 92 82 81 91 95 87 75 83 83 81 71 69 74
69 87 96 100 97 88 96 89 81 70 72 70 73 74 72 70 72 67 75 71 76 84 90 88 81 82 82 83 85 86 83 91 93 86 79 83 100 90 79 79 82 78 72 61 57
79 89 94 100 92 94 94 81 83 73 90 76 91 74 74 72 64 63 74 78 65 83 86 84 76 84 84 82 90 87 81 70 85 80 86 78 92 86 83 78 76 75 72 62 57
82 90 94 100 93 92 91 78 86 67 95 72 85 69 77 64 53 56 72 69 80 76 79 97 86 88 93 95 85 83 80 79 82 89 83 88 92 88 78 78 72 72 72 60 55
87 94 82 99 94 99 80 87 72 93 92 96 88 89 88 82 79 76 74 65 71 84 87 93 70 80 86 84 88 81 84 87 86 88 89 88 85 60 68 63 65 73 59 70 60
89 94 94 90 94 90 86 79 98 95 70 95 92 91 80 81 89 87 82 75 86 90 98 82 83 80 83 96 86 82 97 98 97 94 90 80 74 59 52 45 47 58 48 63 62
82 94 85 84 87 92 79 98 97 76 85 69 88 91 94 73 85 86 82 82 81 90 86 90 83 89 84 88 97 97 88 88 91 92 97 78 87 59 45 46 50 48 52 58 57
86 85 97 96 99 89 93 98 91 86 78 88 80 85 80 90 85 88 88 86 77 88 87 94 99 84 80 86 87 86 82 60 71 69 83 77 55 36 43 45 44 47 48 53 52
94 89 84 100 95 89 100 93 92 64 72 68 75 78 94 93 79 83 79 72 77 76 79 79 94 97 83 78 72 72 59 68 82 78 75 62 61 54 47 50 49 50 56 58 59
91 97 95 99 94 98 99 98 82 63 69 64 78 87 82 92 80 82 82 72 73 78 79 73 77 93 75 88 91 74 69 70 70 78 65 64 52 43 50 44 56 59 61 62 62
92 100 96 99 99 100 99 93 66 74 68 70 70 76 82 85 87 87 84 80 64 65 73 68 84 96 92 76 77 78 75 64 74 71 80 70 56 53 59 47 55 57 60 63 64
97 94 100 91 98 100 95 91 78 77 74 69 72 63 66 79 90 81 79 69 63 64 73 64 83 92 80 66 63 79 78 71 71 73 82 70 59 49 57 56 50 56 59 57 57
98 95 100 91 90 84 100 98 79 75 70 65 65 61 66 76 81 87 84 75 65 67 66 61 77 72 79 65 76 84 79 70 71 77 71 60 56 51 50 49 49 56 56 58 58
97 94 92 99 99 98 91 80 85 82 66 58 60 64 70 81 81 90 83 73 68 65 70 65 85 86 82 79 76 74 77 77 82 65 70 58 56 50 56 52 49 51 54 55 56
98 97 86 87 95 100 99 81 86 75 75 65 69 66 62 72 68 87 83 74 67 65 71 73 95 72 77 72 70 67 74 79 78 73 69 68 67 53 46 52 50 53 54 58 56
87 78 77 97 100 99 93 80 70 72 74 65 65 69 68 66 64 72 74 78 69 67 77 76 83 86 86 78 68 67 61 71 74 73 72 75 63 58 55 53 52 55 60 60 63
Wind_Speed
22 21 16 13 11 13 13 15 16 15 14 16 14 11 11 11 14 16 6 5 3 7 9 13 14 8 5 4 6 3 7 12 19 21 17 10 14 23 10 8 6 10 7 14 30
25 21 19 14 13 11 13 14 14 13 16 14 16 12 10 10 16 11 7 5 4 5 6 7 6 4 3 4 5 9 10 18 12 17 11 9 12 12 9 16 8 7 9 25 28
27 25 20 16 13 10 13 12 14 13 15 14 16 9 8 11 3 5 2 4 5 6 6 6 7 6 7 6 8 8 14 14 16 19 10 7 6 7 13 15 10 17 19 18 23
28 27 22 17 15 11 11 11 12 12 13 14 14 7 10 5 4 3 3 3 8 10 8 6 4 3 4 11 10 12 15 17 14 14 10 13 5 6 15 22 10 14 23 18 16
26 26 25 16 17 12 13 10 11 10 13 11 10 7 5 2 7 3 4 7 9 13 9 8 9 6 7 4 8 15 16 13 18 17 10 7 9 5 13 18 13 13 22 19 18
25 25 27 22 16 12 12 9 10 9 12 10 8 5 2 4 3 2 5 12 14 12 14 10 8 6 5 9 8 1 11 17 12 14 10 8 14 8 5 10 15 17 22 21 19
27 26 30 18 16 12 9 9 8 9 10 7 9 6 2 11 3 7 10 11 12 12 16 21 18 8 2 5 5 9 10 16 15 10 6 5 10 9 10 15 16 18 18 19 19
28 27 23 15 16 11 5 8 10 7 7 7 6 2 6 8 7 11 8 6 2 2 3 5 11 4 2 5 9 6 11 6 10 8 3 6 12 6 9 5 8 7 17 18 17
27 27 27 17 13 7 5 8 5 4 3 5 4 3 7 7 4 6 4 3 1 1 2 5 8 2 2 3 5 7 2 7 4 12 7 3 3 9 4 5 7 3 1 16 14
26 26 28 28 12 7 2 4 3 2 0 3 1 2 7 3 4 6 3 5 5 2 2 1 2 2 3 4 4 7 5 3 5 7 9 8 7 21 4 6 6 5 3 6 16
26 26 29 34 12 6 1 2 2 1 3 6 5 4 2 6 5 2 3 1 1 1 1 0 3 5 5 13 11 4 10 9 7 7 7 11 6 17 5 4 6 5 5 5 5
24 24 25 27 11 7 6 3 0 2 4 13 3 6 3 3 2 2 8 1 2 2 2 2 3 5 10 11 9 5 9 8 10 5 8 5 8 17 5 1 1 3 6 5 5
21 21 23 4 9 7 7 6 1 3 2 2 5 4 3 3 2 3 4 1 1 2 2 1 5 7 6 2 6 3 6 6 7 6 7 3 3 6 2 3 3 1 1 2 4
16 16 17 6 4 7 5 2 8 3 2 3 3 4 3 3 1 1 2 1 2 1 1 2 5 1 4 3 3 4 1 7 14 7 3 2 5 5 6 5 1 3 3 2 3
13 12 13 10 6 4 6 6 6 3 1 3 2 2 3 2 2 2 0 1 1 1 2 1 2 2 5 2 6 2 1 9 9 3 6 2 1 1 2 7 3 5 5 4 3
12 10 9 6 5 5 9 12 4 1 4 3 3 4 4 1 3 2 1 1 1 2 3 2 3 2 1 4 5 1 5 7 3 3 3 2 2 3 1 3 3 4 4 5 6
12 10 11 11 4 13 15 6 2 3 1 5 4 4 2 3 2 3 1 2 1 3 1 2 2 4 2 3 4 7 4 3 2 3 2 3 3 3 8 5 1 11 8 7 10
12 12 17 15 14 22 16 2 3 1 4 3 4 4 4 4 2 2 2 1 2 1 1 2 4 4 4 2 2 3 2 2 4 3 4 2 4 5 6 6 7 7 6 6 3
11 8 8 14 25 27 5 2 3 5 5 7 3 3 3 2 3 3 2 2 4 6 1 2 3 1 2 3 1 3 3 1 5 3 4 2 1 4 10 15 12 11 9 8 8
4 5 6 29 28 19 2 3 3 3 3 3 4 3 5 4 3 3 1 3 1 4 2 1 2 2 2 3 2 1 2 2 3 3 4 2 2 2 6 6 5 7 7 7 7
2 2 3 26 22 3 2 3 4 5 3 4 3 4 3 4 2 3 3 3 2 2 2 1 3 2 2 4 3 3 2 4 4 3 3 3 1 2 3 0 4 4 5 6 7
1 2 11 24 3 2 3 5 4 4 2 2 3 3 4 4 3 2 2 3 3 3 2 1 3 4 2 4 2 0 2 3 3 2 4 2 2 4 4 4 4 5 5 4 5
2 3 15 14 4 3 3 1 2 2 3 2 1 1 3 4 4 2 2 2 1 2 2 2 3 2 6 4 3 5 4 4 4 3 2 3 2 3 2 4 3 5 4 5 6
2 3 1 3 1 4 4 2 3 4 2 2 2 3 4 3 5 3 2 3 3 2 7 5 3 3 4 1 1 2 3 4 4 3 3 1 3 1 1 4 4 4 5 5 5
3 3 1 4 4 5 6 2 4 3 1 1 3 3 5 4 3 3 2 2 4 4 4 4 4 4 4 3 2 0 1 3 3 2 4 1 4 4 4 3 3 5 4 4 5
4 3 3 4 10 7 5 3 5 2 2 1 5 4 2 5 5 6 5 2 1 4 3 2 1 1 5 5 6 3 4 3 3 3 2 1 2 4 3 1 2 4 5 5 5
3 2 4 6 5 4 4 4 6 6 3 1 6 5 4 2 3 5 5 5 4 5 2 3 4 3 2 4 4 3 1 2 2 1 4 2 3 3 2 1 2 4 5 5 4
Wind_Direction
299 301 276 284 293 302 308 311 310 315 315 297 295 303 305 314 311 306 259 236 223 301 311 322 306 311 285 243 240 228 233 235 229 232 225 194 211 244 262 251 199 184 179 146 145
286 302 276 271 284 290 296 304 307 306 313 300 303 292 303 311 314 281 287 221 248 298 307 322 291 291 231 231 230 216 229 234 236 240 238 215 208 231 270 254 222 186 100 136 135
336 290 281 260 270 279 288 302 306 305 312 297 299 300 303 316 328 237 133 207 261 270 302 308 258 230 228 216 220 226 236 246 248 260 242 241 233 223 236 270 228 200 161 158 137
337 342 262 254 266 267 275 292 298 304 305 292 301 305 300 319 300 188 171 273 286 264 273 319 271 222 221 221 215 239 236 243 256 253 252 227 328 242 208 240 309 202 170 158 146
337 331 342 259 250 256 267 287 290 301 297 283 294 292 302 340 254 206 231 281 276 272 246 272 274 248 230 237 213 225 230 247 243 260 271 246 249 289 258 237 306 236 167 168 156
332 330 337 244 244 244 267 280 292 306 292 290 293 261 262 267 218 231 280 302 293 255 257 208 233 252 261 233 240 218 242 245 265 242 242 233 260 342 258 315 284 209 172 168 169
339 334 339 251 241 237 263 286 284 305 285 297 282 250 251 253 243 286 299 304 309 278 264 238 217 255 310 281 316 223 287 248 236 227 235 137 276 257 298 286 249 210 168 172 174
336 338 330 267 228 231 254 275 297 284 276 287 283 196 255 256 286 293 300 328 325 28 45 166 177 233 305 2 333 210 232 193 196 180 66 152 237 290 277 292 199 250 172 167 180
335 334 339 328 227 226 241 289 286 272 275 273 230 165 260 297 255 293 280 286 225 19 314 209 165 183 191 321 288 196 191 207 147 187 127 131 317 297 268 46 78 43 324 169 173
332 333 338 342 216 216 275 285 283 252 213 236 148 251 273 255 272 285 290 275 244 118 4 182 82 204 174 177 249 162 139 152 155 176 191 166 261 282 342 41 62 60 77 153 185
328 330 331 337 210 169 201 127 116 62 184 197 188 244 267 290 277 243 350 355 235 201 151 41 221 226 257 230 244 168 142 129 93 97 140 207 302 287 318 34 49 50 80 90 112
326 330 331 328 182 163 144 134 27 294 293 218 240 262 259 255 340 323 10 117 102 234 184 218 265 220 249 248 230 177 135 124 102 122 111 88 260 274 335 280 301 41 50 85 106
323 328 339 224 157 150 163 175 234 331 248 231 181 212 217 212 187 280 52 330 132 62 353 128 305 303 22 117 166 138 148 165 127 155 98 193 278 281 58 270 231 106 120 75 135
316 325 343 204 164 154 154 98 226 241 37 204 202 230 177 189 33 224 51 248 8 150 57 284 275 52 36 66 356 149 339 158 146 131 106 25 314 50 294 301 308 312 345 345 64
302 317 326 234 159 173 122 163 165 245 306 131 171 155 210 160 177 24 272 300 206 276 173 316 5 127 41 333 326 54 27 149 157 111 117 50 279 334 200 224 272 275 289 295 266
292 293 315 212 189 151 133 132 167 139 247 156 131 216 175 164 94 335 275 37 256 305 127 286 268 348 46 10 348 273 82 60 63 42 74 225 62 332 141 25 145 251 277 294 303
286 274 294 261 230 173 137 134 116 205 74 165 189 198 195 120 146 197 115 15 95 97 13 316 19 330 85 50 347 83 50 115 75 32 72 23 31 299 326 348 276 173 175 148 263
286 298 281 238 216 161 133 106 203 215 192 148 141 131 142 154 83 125 55 358 235 99 109 92 8 342 341 63 104 126 238 112 132 146 95 33 350 350 343 15 50 63 52 80 154
310 312 253 209 176 156 124 175 223 209 171 146 140 134 117 204 149 114 189 256 205 192 123 122 23 295 351 301 336 308 45 239 109 67 91 330 360 28 8 40 42 65 68 68 79
14 303 292 166 163 138 126 161 246 236 148 143 133 195 142 192 121 135 189 237 312 190 151 238 93 353 324 330 15 295 308 84 9 91 84 15 48 84 13 38 16 64 66 63 60
23 328 226 158 133 110 162 143 273 248 205 150 140 134 122 138 108 116 172 271 211 153 190 352 50 49 358 25 358 345 22 48 107 58 128 132 62 172 269 244 120 85 74 83 75
359 231 179 168 126 150 139 148 258 278 157 294 128 112 123 161 108 140 204 245 344 155 78 52 103 52 33 309 293 31 77 61 92 310 52 76 355 352 239 188 147 100 68 57 52
228 222 175 172 160 136 67 88 284 269 182 225 135 138 123 152 104 96 188 323 292 113 150 188 12 67 353 359 3 32 22 87 64 59 359 98 249 25 100 129 105 109 88 62 60
236 166 200 173 11 130 119 180 254 220 233 206 124 90 106 82 24 122 89 2 4 73 66 95 88 136 151 148 322 30 43 36 85 80 173 96 125 38 79 118 120 94 94 87 71
203 196 164 161 140 107 134 230 171 181 292 232 41 111 133 105 76 98 63 33 22 3 39 67 81 64 50 44 130 44 132 117 88 167 97 215 122 195 183 106 87 138 127 93 56
163 158 83 115 120 112 171 227 199 120 34 279 132 120 86 142 159 183 138 165 159 17 67 37 132 133 22 3 14 74 72 69 35 83 84 57 315 190 174 65 94 75 60 42 33
195 100 109 123 121 127 195 247 188 122 32 120 149 99 76 89 103 105 93 92 117 138 113 71 120 71 306 344 357 13 261 173 141 168 131 166 267 345 318 323 55 123 92 79 39